Temp
1 1 1 -0 -2 -2 -3 -3 -3 -2 -3 -4 -2 -1 -0 -1 -2 -2 -4 -4 -4 -4 -4 -3 -1 -0 0 2 2 3 3 3 3 2 3 4 3 3 3 4 4 3 2 2
1 -0 -1 -1 -2 -2 -2 -3 -3 -2 -2 -5 -2 -0 -1 -3 -3 -3 -4 -4 -4 -5 -5 -5 -3 -2 -1 -1 1 2 3 4 3 3 2 3 3 3 3 3 3 3 1 2
-0 -1 -1 -2 -2 -2 -2 -3 -3 -5 -3 -3 -4 -1 -1 -3 -3 -4 -4 -4 -5 -5 -4 -4 -4 -4 -2 -1 -1 1 2 2 3 3 3 3 2 2 2 3 3 3 2 2
-1 -1 -1 -2 -2 -3 -3 -4 -4 -4 -7 -7 -5 -7 -1 -2 -3 -3 -4 -4 -4 -5 -5 -4 -4 -3 -4 -3 -1 -1 0 2 2 3 3 3 3 3 3 4 3 2 2 2
-1 -1 -1 -2 -3 -4 -4 -4 -4 -4 -5 -7 -6 -8 -2 -2 -2 -3 -4 -4 -5 -5 -4 -4 -4 -3 -3 -3 -3 -1 -1 0 2 3 3 3 3 2 2 3 3 3 3 2
-1 -1 -2 -3 -4 -4 -4 -4 -3 -5 -6 -9 -5 -6 -4 -3 -3 -3 -4 -4 -5 -4 -4 -4 -4 -3 -2 -2 -2 -2 -1 -1 0 1 3 2 3 3 2 3 3 2 2 3
-1 -1 -3 -4 -4 -4 -5 -5 -9 -9 -9 -9 -5 -6 -3 -3 -3 -4 -5 -5 -6 -6 -5 -4 -4 -3 -2 -2 -2 -2 -2 -1 -1 0 1 2 2 3 3 3 2 2 2 2
-4 -2 -3 -4 -5 -6 -6 -7 -8 -12 -11 -8 -6 -7 -3 -4 -4 -4 -6 -6 -6 -5 -6 -5 -5 -4 -3 -2 -2 -2 -1 -1 -0 -0 0 1 2 2 3 3 2 2 2 2
-4 -4 -4 -4 -5 -6 -6 -7 -8 -8 -8 -9 -6 -4 -4 -4 -5 -5 -7 -8 -7 -7 -7 -6 -5 -4 -3 -3 -2 -2 -1 -1 -1 -0 -0 0 1 2 2 3 3 2 2 2
-5 -5 -4 -4 -5 -6 -6 -8 -8 -8 -11 -10 -7 -5 -5 -5 -6 -7 -8 -8 -9 -9 -8 -7 -7 -5 -3 -2 -2 -2 -1 -1 -1 -1 -0 -0 0 1 1 2 2 2 3 2
-6 -7 -4 -4 -5 -6 -7 -8 -8 -9 -9 -9 -8 -5 -4 -7 -7 -8 -8 -9 -10 -10 -9 -8 -8 -7 -5 -3 -2 -2 -1 -1 -1 -1 -1 -0 0 1 1 1 2 2 2 2
-6 -7 -5 -4 -5 -6 -7 -8 -9 -10 -9 -9 -10 -8 -5 -7 -8 -8 -8 -10 -10 -10 -9 -9 -8 -7 -6 -4 -2 -2 -1 -1 -1 -1 -1 -0 0 0 1 1 1 2 1 2
-6 -7 -7 -5 -6 -7 -7 -8 -9 -10 -11 -10 -10 -6 -5 -8 -8 -8 -9 -9 -9 -9 -9 -9 -8 -7 -7 -5 -3 -2 -1 -1 -2 -1 -2 -2 0 0 -0 0 1 1 1 1
-6 -6 -6 -6 -6 -7 -7 -7 -8 -10 -12 -10 -8 -7 -7 -8 -8 -8 -9 -9 -9 -9 -9 -9 -8 -8 -8 -6 -4 -2 -1 -1 -1 -1 -2 -1 -1 -0 -0 -0 -0 -0 0 -0
-6 -7 -6 -5 -5 -6 -5 -5 -6 -7 -7 -10 -6 -7 -9 -8 -7 -8 -9 -9 -8 -8 -8 -8 -8 -7 -7 -6 -3 -2 -2 -2 -1 -1 -2 -2 -2 -0 -0 -1 -1 -0 -0 -1
-6 -7 -6 -4 -4 -5 -5 -5 -5 -6 -6 -7 -7 -6 -7 -7 -7 -7 -8 -9 -9 -8 -8 -7 -7 -6 -6 -5 -4 -2 -2 -2 -2 -2 -3 -2 -2 -2 -2 -1 -1 -1 -1 -1
-6 -6 -7 -5 -5 -5 -4 -4 -5 -5 -6 -6 -6 -5 -6 -6 -7 -8 -7 -8 -8 -8 -7 -7 -6 -5 -5 -5 -4 -4 -2 -2 -2 -2 -3 -2 -2 -2 -1 -1 -1 -2 -2 -2
-5 -7 -8 -6 -5 -11 -2 -3 -4 -4 -5 -5 -5 -5 -6 -6 -6 -7 -7 -8 -8 -8 -8 -7 -6 -5 -4 -4 -4 -3 -4 -3 -3 -2 -3 -2 -2 -2 -2 -2 -2 -2 -2 -4
-5 -7 -8 -9 -10 -5 -2 -3 -4 -5 -4 -5 -5 -5 -5 -5 -5 -6 -7 -7 -8 -8 -8 -8 -7 -6 -4 -4 -3 -4 -3 -3 -3 -3 -3 -3 -2 -3 -2 -2 -3 -4 -5 -5
-5 -7 -9 -9 -10 -13 -2 -3 -4 -4 -4 -5 -5 -5 -5 -5 -4 -6 -6 -6 -7 -7 -7 -7 -8 -7 -6 -4 -4 -4 -3 -3 -3 -3 -3 -3 -3 -3 -3 -4 -5 -5 -6 -6
-5 -8 -9 -10 -9 -4 -3 -3 -4 -4 -4 -4 -5 -5 -5 -5 -6 -6 -6 -6 -6 -6 -7 -7 -7 -7 -6 -7 -7 -6 -6 -6 -6 -6 -6 -6 -6 -6 -6 -6 -6 -6 -7 -6
-4 -5 -5 -8 -10 -6 -2 -3 -4 -4 -4 -4 -4 -4 -5 -5 -6 -6 -6 -6 -6 -6 -6 -6 -6 -6 -6 -7 -6 -6 -6 -7 -7 -7 -7 -7 -7 -7 -7 -7 -7 -6 -6 -6
-4 -3 -3 -3 -1 -2 -3 -3 -3 -3 -4 -4 -4 -4 -4 -5 -5 -7 -6 -6 -6 -6 -6 -6 -6 -7 -7 -7 -6 -5 -6 -6 -6 -6 -6 -7 -7 -7 -6 -6 -6 -7 -7 -7
-2 -4 -3 -3 -1 -2 -3 -3 -3 -3 -4 -4 -4 -4 -4 -5 -4 -5 -5 -6 -6 -6 -7 -7 -7 -6 -6 -7 -7 -7 -7 -7 -7 -7 -6 -6 -6 -6 -6 -7 -7 -7 -7 -7
-3 -3 -2 -1 -1 -2 -2 -2 -2 -2 -3 -3 -4 -4 -4 -4 -4 -4 -4 -5 -6 -6 -7 -7 -7 -7 -7 -7 -7 -6 -7 -7 -7 -7 -7 -6 -6 -6 -6 -6 -6 -6 -7 -7
1 0 -1 -1 -1 -2 -2 -2 -2 -2 -2 -3 -3 -3 -4 -4 -4 -4 -4 -4 -5 -6 -7 -7 -7 -7 -7 -7 -7 -7 -7 -6 -7 -7 -7 -7 -7 -7 -7 -7 -7 -8 -8 -8
Height
3089 3088 3083 3080 3078 3076 3072 3070 3065 3063 3059 3049 3046 3038 3035 3032 3026 3022 3018 3017 3013 3010 3007 3005 3006 3009 3011 3016 3022 3026 3033 3038 3042 3042 3050 3048 3049 3062 3066 3071 3076 3080 3084 3088
3090 3087 3084 3080 3076 3075 3071 3067 3063 3058 3055 3048 3042 3034 3031 3026 3022 3019 3016 3015 3012 3008 3004 3002 3000 2998 2999 3003 3007 3014 3020 3027 3032 3036 3039 3043 3036 3052 3058 3062 3067 3072 3076 3081
3087 3087 3082 3078 3075 3072 3070 3066 3062 3058 3050 3044 3037 3028 3025 3023 3020 3016 3014 3012 3010 3005 3002 2996 2996 2994 2991 2993 2996 3001 3007 3014 3021 3026 3032 3035 3038 3043 3048 3054 3057 3063 3067 3071
3085 3085 3081 3078 3074 3070 3065 3063 3060 3055 3050 3044 3040 3032 3021 3021 3018 3015 3011 3009 3006 3001 2997 2992 2990 2989 2987 2984 2985 2988 2994 3001 3010 3016 3021 3025 3030 3036 3042 3047 3051 3050 3056 3061
3086 3083 3080 3077 3073 3069 3065 3059 3056 3049 3046 3043 3037 3037 3017 3017 3014 3011 3009 3005 3000 2995 2990 2986 2982 2980 2979 2978 2976 2976 2981 2987 2996 3004 3011 3014 3022 3028 3033 3038 3043 3048 3050 3051
3084 3081 3079 3075 3071 3068 3062 3056 3050 3045 3043 3043 3034 3035 3013 3012 3010 3005 3002 2997 2991 2985 2980 2976 2972 2968 2967 2967 2967 2967 2968 2975 2983 2991 2999 3004 3012 3019 3024 3032 3036 3039 3043 3045
3084 3079 3077 3073 3069 3066 3062 3057 3050 3049 3046 3041 3032 3031 3012 3009 3005 3001 2995 2989 2982 2974 2965 2958 2954 2952 2952 2953 2954 2956 2958 2963 2971 2978 2986 2993 3002 3008 3016 3025 3029 3033 3036 3038
3083 3077 3075 3072 3069 3066 3063 3061 3063 3068 3053 3037 3029 3022 3009 3006 3002 2996 2992 2984 2972 2960 2952 2945 2940 2938 2937 2938 2941 2943 2946 2952 2957 2966 2975 2981 2991 2997 3007 3015 3021 3024 3028 3033
3083 3078 3074 3071 3068 3067 3064 3063 3062 3057 3047 3042 3023 3014 3009 3003 2998 2994 2982 2968 2955 2946 2938 2931 2926 2923 2922 2923 2926 2930 2935 2941 2946 2954 2964 2973 2980 2987 2997 3006 3013 3016 3020 3024
3082 3077 3073 3070 3066 3065 3064 3063 3060 3058 3053 3043 3020 3012 3003 2999 2991 2981 2968 2954 2943 2933 2922 2913 2907 2904 2905 2907 2912 2917 2924 2931 2938 2944 2954 2965 2972 2980 2986 2994 3001 3007 3012 3013
3078 3078 3073 3068 3065 3063 3062 3060 3059 3057 3053 3047 3028 3008 3003 2997 2985 2972 2957 2945 2932 2920 2909 2901 2896 2892 2891 2894 2899 2906 2914 2922 2930 2936 2944 2953 2965 2973 2980 2986 2992 2999 3005 3009
3078 3074 3068 3066 3063 3061 3059 3057 3056 3055 3051 3046 3039 3007 3002 2995 2982 2968 2953 2939 2926 2914 2903 2895 2888 2884 2882 2885 2890 2898 2906 2914 2922 2928 2935 2948 2960 2968 2974 2977 2985 2992 2999 2999
3076 3070 3066 3063 3062 3058 3055 3053 3052 3051 3048 3039 3037 3007 3000 2990 2976 2964 2948 2935 2922 2911 2899 2890 2884 2880 2878 2878 2883 2891 2900 2909 2918 2926 2933 2943 2954 2964 2969 2973 2979 2984 2990 2993
3073 3069 3067 3064 3059 3056 3050 3049 3048 3047 3043 3034 3025 3007 2994 2981 2970 2960 2946 2933 2921 2909 2897 2888 2882 2878 2876 2876 2881 2890 2898 2908 2917 2923 2929 2939 2949 2958 2964 2968 2971 2976 2982 2984
3070 3064 3060 3057 3053 3049 3045 3043 3042 3039 3036 3032 3018 3010 2994 2984 2972 2961 2948 2935 2921 2909 2899 2891 2884 2880 2879 2879 2884 2891 2899 2909 2917 2922 2927 2936 2945 2954 2959 2966 2967 2971 2974 2980
3066 3062 3056 3049 3047 3044 3039 3038 3037 3034 3031 3024 3018 3007 3001 2988 2976 2963 2950 2937 2923 2911 2902 2895 2889 2886 2886 2886 2889 2895 2903 2911 2917 2922 2928 2932 2942 2951 2954 2964 2964 2968 2971 2976
3062 3060 3056 3046 3044 3039 3037 3034 3032 3030 3028 3024 3016 3009 2997 2986 2976 2963 2953 2942 2928 2916 2907 2900 2895 2893 2894 2896 2899 2901 2906 2913 2917 2923 2928 2934 2942 2948 2954 2960 2964 2966 2971 2975
3058 3056 3055 3046 3043 3043 3032 3031 3029 3027 3024 3021 3016 3009 3000 2990 2982 2970 2960 2949 2937 2925 2914 2906 2903 2901 2901 2904 2906 2909 2912 2917 2919 2925 2930 2934 2941 2944 2952 2959 2962 2964 2967 2973
3053 3053 3052 3047 3042 3034 3028 3028 3027 3024 3022 3018 3013 3008 3001 2995 2987 2977 2966 2954 2945 2935 2924 2914 2909 2907 2908 2909 2911 2914 2918 2921 2926 2928 2932 2936 2942 2948 2952 2956 2960 2964 2971 2976
3050 3050 3051 3046 3044 3036 3027 3026 3024 3022 3019 3016 3012 3007 3001 2996 2987 2981 2971 2964 2955 2946 2937 2928 2920 2915 2914 2914 2916 2918 2921 2924 2929 2933 2936 2941 2944 2949 2953 2958 2964 2970 2976 2980
3045 3044 3042 3042 3040 3027 3025 3024 3023 3022 3023 3016 3012 3008 3002 2996 2991 2986 2980 2973 2965 2958 2950 2943 2937 2929 2924 2925 2926 2925 2926 2930 2934 2938 2943 2947 2953 2959 2963 2967 2971 2976 2982 2987
3041 3039 3036 3035 3034 3026 3023 3023 3022 3019 3016 3015 3012 3008 3004 2999 2993 2990 2986 2981 2975 2969 2963 2957 2952 2947 2944 2942 2944 2941 2941 2943 2947 2952 2955 2959 2964 2968 2973 2977 2980 2984 2988 2991
3035 3033 3032 3031 3024 3021 3019 3018 3016 3015 3014 3013 3011 3008 3004 3000 2996 2993 2990 2986 2982 2978 2973 2969 2965 2962 2959 2958 2958 2957 2955 2959 2963 2966 2968 2972 2975 2979 2981 2983 2986 2989 2992 2994
3027 3026 3023 3021 3018 3016 3014 3012 3011 3011 3012 3012 3010 3008 3005 3002 2998 2994 2992 2989 2987 2985 2982 2979 2976 2975 2971 2970 2970 2969 2969 2971 2973 2975 2977 2979 2982 2984 2986 2989 2992 2993 2995 2997
3021 3019 3015 3011 3011 3010 3008 3007 3006 3006 3008 3009 3008 3007 3005 3003 3000 2997 2994 2993 2991 2989 2987 2985 2983 2982 2981 2979 2979 2978 2978 2978 2980 2982 2984 2985 2986 2988 2989 2991 2993 2995 2996 2997
3012 3011 3009 3006 3006 3005 3005 3004 3003 3004 3005 3006 3006 3006 3004 3002 3000 2999 2996 2994 2992 2991 2990 2988 2987 2987 2986 2985 2985 2985 2985 2984 2985 2987 2988 2990 2991 2992 2992 2994 2995 2996 2996 2997
Wind_Speed
13 15 21 22 24 24 25 28 31 32 26 38 36 41 33 31 25 24 21 17 16 16 16 20 31 38 43 51 56 54 49 44 40 46 46 51 41 42 39 37 38 40 40 37
13 15 17 18 23 23 24 24 29 27 31 37 37 33 29 24 9 15 12 16 15 12 8 9 15 23 38 45 52 56 55 52 47 43 53 52 47 43 35 36 38 40 43 41
10 15 16 18 24 25 25 22 27 28 34 35 26 33 32 13 16 23 20 18 19 25 19 9 15 15 22 39 47 52 56 55 53 46 44 47 43 39 40 42 35 39 39 38
10 17 13 17 23 26 29 26 25 30 30 15 23 9 23 20 15 15 7 15 25 33 26 25 23 17 18 23 41 49 52 58 57 53 50 48 45 40 37 42 47 46 37 40
15 13 13 21 20 26 28 28 27 29 18 16 10 6 15 15 20 16 22 26 25 28 30 30 33 29 25 23 23 41 53 53 58 58 58 53 46 41 40 35 32 36 39 39
15 14 10 23 17 27 25 27 19 12 7 3 2 3 25 15 18 26 28 31 36 40 42 43 44 40 34 30 28 27 43 54 55 57 59 58 54 49 48 38 35 33 35 36
15 13 12 14 21 23 21 22 8 5 2 5 5 14 18 22 25 29 32 35 51 57 57 52 47 42 35 35 35 33 32 46 56 55 55 62 54 54 47 43 36 34 34 37
12 11 19 18 21 21 12 13 4 4 4 12 28 10 15 32 32 30 28 49 61 52 43 39 36 35 34 34 36 37 34 34 51 58 54 55 55 54 52 47 40 37 32 36
10 10 17 11 24 12 9 10 15 9 15 8 8 16 32 22 27 37 59 66 55 47 44 43 41 38 34 33 34 38 38 35 36 55 57 53 52 54 57 51 48 45 45 37
14 11 10 20 14 9 10 11 6 6 5 6 9 19 22 28 38 56 67 55 49 50 52 45 35 31 31 31 34 36 38 37 33 43 55 51 46 45 47 52 53 49 45 48
20 9 15 17 10 11 9 8 6 10 7 3 6 15 28 30 51 65 57 52 53 50 43 35 28 22 23 25 32 35 36 34 36 36 51 54 48 34 39 42 45 46 41 45
16 8 16 15 7 9 11 14 13 3 5 13 14 17 27 49 58 53 51 50 49 41 35 32 26 20 15 19 27 33 33 31 36 35 46 52 46 42 32 34 37 40 43 33
15 9 11 7 6 11 16 20 15 14 16 18 5 19 50 54 54 46 50 48 42 36 31 26 20 15 12 13 23 30 29 29 32 29 36 38 46 38 30 21 37 38 44 38
15 11 12 13 20 24 25 22 20 16 11 12 24 39 54 58 50 46 49 45 38 33 31 25 17 11 9 5 16 25 25 28 26 18 29 34 41 37 25 22 24 22 39 29
13 15 20 22 24 19 18 20 11 16 18 15 32 40 48 51 43 41 48 45 38 32 29 24 18 13 10 6 14 21 24 28 23 19 24 28 31 39 26 27 13 26 22 18
20 13 23 29 9 16 26 6 7 10 11 21 27 42 42 41 38 38 43 48 40 34 30 27 24 18 13 13 14 21 26 25 19 15 25 22 28 29 20 23 15 7 13 12
19 13 17 8 15 21 7 9 8 11 10 16 26 35 42 41 39 41 40 45 45 34 28 27 28 25 18 15 14 18 23 22 19 17 17 26 27 28 23 18 13 19 19 22
19 19 12 13 11 3 5 9 10 13 7 16 25 31 34 34 34 37 36 38 44 41 32 24 20 21 19 15 14 13 13 15 14 16 21 21 27 21 20 19 15 18 23 26
17 16 8 6 10 18 7 5 9 12 8 19 25 29 31 26 27 33 36 38 38 42 42 34 23 17 14 14 13 11 12 14 13 10 17 15 27 21 21 15 18 22 28 29
14 15 11 7 5 5 4 9 10 11 3 18 24 28 29 27 27 32 36 36 38 38 41 43 38 31 22 17 13 11 9 13 12 10 12 16 17 19 22 24 27 26 26 24
12 12 17 16 10 11 11 5 8 6 6 20 21 23 26 26 22 26 29 32 36 38 39 41 42 45 45 40 32 30 28 28 28 26 27 28 27 26 27 28 27 25 23 22
9 7 7 6 9 6 5 6 10 15 21 19 15 19 21 21 18 18 22 25 29 32 34 38 40 42 43 42 38 40 40 40 36 34 33 31 30 29 27 26 26 22 17 13
11 11 9 11 13 25 22 15 15 13 11 7 11 15 17 18 19 15 17 20 23 25 29 32 33 36 38 38 38 39 41 37 35 33 32 30 27 24 21 18 15 13 13 12
20 17 22 28 11 20 21 21 19 17 9 7 8 11 14 16 17 17 16 15 17 19 21 24 26 26 29 30 30 32 32 30 27 24 22 20 18 15 14 13 11 9 6 4
27 28 29 28 18 15 12 9 12 12 10 7 4 9 11 13 14 15 14 13 11 15 17 18 19 19 20 21 20 21 22 23 19 16 14 14 14 12 10 7 5 4 4 2
21 15 21 22 16 13 11 9 6 6 10 7 3 5 10 12 10 11 12 11 10 9 9 10 12 12 14 14 14 13 12 12 11 11 10 9 7 5 4 3 2 2 2 4
Wind_Direction
360 6 6 3 2 357 346 337 328 332 339 322 321 315 323 328 319 307 292 308 313 309 303 285 259 244 245 238 234 229 230 233 237 224 226 237 228 235 231 228 226 227 230 234
360 3 360 359 355 352 343 336 336 337 336 320 321 319 331 338 336 348 313 315 313 304 307 311 286 258 239 239 237 234 229 229 230 236 224 230 225 230 235 238 236 233 230 229
355 351 349 352 349 343 346 340 335 325 324 318 324 325 344 354 327 310 306 297 308 316 302 308 324 300 255 237 236 237 233 229 226 233 225 229 234 230 229 234 237 236 239 230
349 339 343 345 342 346 338 331 327 318 319 310 314 289 340 334 330 321 307 311 301 301 301 284 295 297 294 259 236 234 235 231 230 226 232 235 233 234 229 231 235 228 246 232
349 346 342 341 341 347 330 327 325 309 303 305 304 262 297 324 327 309 308 308 302 300 300 300 296 286 281 274 261 238 231 231 229 229 230 235 235 241 236 242 245 239 251 229
354 349 338 337 341 344 334 329 326 306 301 270 264 280 299 314 317 317 312 306 309 302 298 296 293 284 273 259 258 255 238 228 228 228 228 232 233 236 243 243 242 241 243 244
4 340 340 335 336 345 337 354 343 349 346 238 293 313 283 315 315 310 306 308 315 310 306 301 295 287 275 255 250 249 247 232 225 226 226 231 232 234 238 238 241 243 247 244
359 341 339 335 344 339 357 11 63 288 297 294 301 236 309 314 309 303 304 308 311 313 307 299 291 280 269 256 250 239 240 236 226 223 222 226 229 232 232 235 237 243 242 243
340 315 331 343 339 358 344 344 323 266 276 275 268 288 310 321 312 316 321 320 320 316 310 303 297 285 273 255 240 236 231 228 229 222 222 226 229 232 234 235 235 238 247 242
336 313 336 342 341 345 330 333 332 297 309 296 274 297 301 322 316 328 326 325 325 320 315 311 303 286 268 250 235 229 229 222 220 221 219 221 229 234 233 232 232 234 242 246
335 323 338 345 332 324 323 326 321 296 260 272 306 301 324 318 328 329 329 332 329 326 324 321 316 297 270 242 231 226 224 222 216 218 214 216 219 226 227 225 227 228 232 250
328 303 314 333 308 308 312 316 319 313 303 279 273 278 335 330 335 334 335 336 334 333 328 324 321 311 281 244 223 222 222 217 213 216 214 213 215 226 229 215 225 228 227 247
328 314 319 325 298 316 311 311 300 300 286 266 272 291 337 339 343 344 344 341 339 340 338 339 333 323 299 233 214 209 212 210 209 215 205 212 211 222 228 223 226 233 236 249
319 294 289 261 296 303 298 300 303 292 270 274 281 310 340 343 345 351 354 349 347 353 356 357 355 351 343 221 201 198 199 196 200 213 198 207 210 215 228 230 227 225 239 256
311 298 304 310 312 291 298 312 299 284 301 274 320 328 342 342 344 353 1 359 357 2 14 16 25 39 48 105 168 181 181 182 191 197 207 200 209 216 214 226 270 257 224 220
306 289 307 319 300 311 315 294 300 309 304 304 323 339 341 349 349 360 4 7 6 6 18 32 45 59 70 97 142 161 169 179 184 192 190 194 192 200 207 231 190 235 207 220
290 285 308 290 313 314 288 316 310 321 304 315 337 348 348 355 360 6 7 13 16 18 20 32 50 63 73 92 115 148 166 174 176 180 192 184 192 210 199 213 224 214 218 207
276 283 290 290 319 346 288 312 319 322 297 340 352 353 354 355 4 15 11 17 23 28 33 39 51 65 81 90 102 126 156 173 175 174 186 196 200 186 187 206 215 189 181 176
270 273 281 282 299 292 281 296 314 320 323 349 354 356 357 2 9 23 24 23 29 34 39 44 53 70 82 88 124 129 147 162 189 194 183 180 183 193 185 180 177 162 159 159
258 258 244 275 276 232 290 315 318 325 303 349 353 356 356 2 20 23 30 32 36 40 45 50 58 68 81 95 83 106 137 181 190 204 175 165 156 167 162 155 148 149 152 153
242 251 247 251 252 275 272 271 305 319 317 342 347 355 0 1 18 25 33 35 37 44 51 55 58 66 72 74 81 91 95 105 106 113 120 122 124 125 129 132 134 132 138 148
256 247 235 219 233 290 229 276 290 300 305 317 345 356 3 4 19 30 35 43 44 48 54 61 65 69 71 75 79 85 88 88 94 99 103 107 113 117 118 124 130 136 134 128
255 238 263 254 270 293 294 291 287 307 312 310 350 357 2 5 13 34 36 45 47 53 56 61 63 69 75 79 80 83 83 88 91 94 97 101 108 119 122 111 108 116 130 134
268 266 274 291 310 300 296 286 278 276 276 290 340 357 359 3 9 22 28 39 43 46 57 64 67 70 77 81 84 85 87 90 93 98 104 107 105 102 106 109 108 106 106 114
275 284 288 290 310 293 296 287 273 274 233 247 320 349 -0 360 2 8 15 30 42 45 49 52 59 65 69 76 81 91 99 97 95 96 100 104 109 112 111 108 112 131 144 175
290 289 284 292 288 291 284 293 279 237 206 217 254 347 4 1 359 360 1 10 32 50 52 51 61 60 62 66 69 67 69 85 97 98 100 99 92 85 90 95 64 31 338 308